Previsão horária em Barra do Garças

Hoje, 24 Outubro, Sábado

Tempo Temperatura Precipitação Vento Pressão Humidade
00:00 +25°C° 0.3 mm 2 m/s 727 mmHg 87%
01:00 +25°C° 0.3 mm 2 m/s 727 mmHg 87%
02:00 +25°C° 0.3 mm 2 m/s 726 mmHg 87%
03:00 +25°C° 0.3 mm 2 m/s 726 mmHg 87%
04:00 +25°C° 0 mm 1 m/s 726 mmHg 88%
05:00 +25°C° 0 mm 1 m/s 726 mmHg 88%
06:00 +25°C° 0 mm 1 m/s 727 mmHg 89%
07:00 +26°C° 0 mm 1 m/s 727 mmHg 85%
08:00 +27°C° 0 mm 1 m/s 728 mmHg 81%
09:00 +28°C° 0 mm 1 m/s 728 mmHg 77%
10:00 +29°C° 0.2 mm 1 m/s 728 mmHg 70%
11:00 +31°C° 0.2 mm 2 m/s 728 mmHg 63%
12:00 +32°C° 0.2 mm 2 m/s 728 mmHg 56%
13:00 +34°C° 0 mm 3 m/s 727 mmHg 52%
14:00 +35°C° 0 mm 3 m/s 726 mmHg 48%
15:00 +36°C° 0 mm 4 m/s 725 mmHg 44%
16:00 +35°C° 0 mm 3 m/s 725 mmHg 47%
17:00 +34°C° 0 mm 3 m/s 725 mmHg 49%
18:00 +32°C° 0 mm 2 m/s 724 mmHg 52%
19:00 +30°C° 0.1 mm 2 m/s 725 mmHg 56%
20:00 +29°C° 0.1 mm 2 m/s 725 mmHg 60%
21:00 +27°C° 0.1 mm 1 m/s 725 mmHg 64%
22:00 +27°C° 0.2 mm 1 m/s 725 mmHg 67%
23:00 +26°C° 0.2 mm 1 m/s 726 mmHg 71%

Amanhã, 25 Outubro, Domingo

Tempo Temperatura Precipitação Vento Pressão Humidade
00:00 +26°C° 0.2 mm 1 m/s 726 mmHg 75%
01:00 +25°C° 0.3 mm 1 m/s 725 mmHg 79%
02:00 +25°C° 0.3 mm 1 m/s 725 mmHg 84%
03:00 +24°C° 0.3 mm 2 m/s 725 mmHg 88%
04:00 +24°C° 0 mm 1 m/s 725 mmHg 91%
05:00 +23°C° 0 mm 1 m/s 725 mmHg 93%
06:00 +23°C° 0 mm 1 m/s 726 mmHg 96%
07:00 +25°C° 0 mm 1 m/s 726 mmHg 87%
08:00 +28°C° 0 mm 1 m/s 727 mmHg 78%
09:00 +30°C° 0 mm 1 m/s 727 mmHg 69%
10:00 +32°C° 0.1 mm 1 m/s 727 mmHg 61%
11:00 +35°C° 0.1 mm 2 m/s 727 mmHg 53%
12:00 +36°C° 0.1 mm 2 m/s 727 mmHg 44%
13:00 +36°C° 0 mm 2 m/s 726 mmHg 45%
14:00 +36°C° 0 mm 3 m/s 725 mmHg 45%
15:00 +36°C° 0 mm 3 m/s 724 mmHg 45%
16:00 +35°C° 0 mm 2 m/s 724 mmHg 47%
17:00 +34°C° 0 mm 2 m/s 724 mmHg 50%
18:00 +33°C° 0 mm 1 m/s 723 mmHg 53%
19:00 +31°C° 0.3 mm 1 m/s 724 mmHg 58%
20:00 +30°C° 0.3 mm 1 m/s 724 mmHg 64%
21:00 +26°C° 0.3 mm 0 m/s 724 mmHg 70%
22:00 +26°C° 0 mm 0 m/s 724 mmHg 71%
23:00 +25°C° 0 mm 0 m/s 724 mmHg 73%

Depois de amanhã, 26 Outubro, Segunda-feira

Tempo Temperatura Precipitação Vento Pressão Humidade
00:00 +25°C° 0 mm 0 m/s 724 mmHg 74%
01:00 +27°C° 0 mm 1 m/s 724 mmHg 76%
02:00 +26°C° 0 mm 1 m/s 724 mmHg 78%
03:00 +26°C° 0 mm 1 m/s 723 mmHg 80%
04:00 +26°C° 0 mm 1 m/s 724 mmHg 82%
05:00 +25°C° 0 mm 1 m/s 724 mmHg 84%
06:00 +25°C° 0 mm 1 m/s 724 mmHg 86%
07:00 +26°C° 0 mm 1 m/s 725 mmHg 82%
08:00 +27°C° 0 mm 1 m/s 726 mmHg 79%
09:00 +28°C° 0 mm 1 m/s 726 mmHg 75%
10:00 +30°C° 0 mm 2 m/s 726 mmHg 66%
11:00 +32°C° 0 mm 2 m/s 726 mmHg 58%
12:00 +35°C° 0 mm 3 m/s 726 mmHg 49%
13:00 +36°C° 0 mm 2 m/s 725 mmHg 45%
14:00 +37°C° 0 mm 2 m/s 724 mmHg 41%
15:00 +37°C° 0 mm 1 m/s 723 mmHg 37%
16:00 +35°C° 0.7 mm 2 m/s 723 mmHg 50%
17:00 +30°C° 0.7 mm 3 m/s 723 mmHg 63%
18:00 +27°C° 0.7 mm 3 m/s 723 mmHg 76%
19:00 +26°C° 0 mm 2 m/s 724 mmHg 77%
20:00 +26°C° 0 mm 2 m/s 724 mmHg 78%
21:00 +26°C° 0 mm 1 m/s 725 mmHg 79%
22:00 +25°C° 0.4 mm 1 m/s 725 mmHg 80%
23:00 +23°C° 0.4 mm 0 m/s 725 mmHg 82%

, 27 Outubro, Terça-feira

Tempo Temperatura Precipitação Vento Pressão Humidade
00:00 +23°C° 0.4 mm 0 m/s 725 mmHg 84%
01:00 +23°C° 0.1 mm 0 m/s 724 mmHg 84%
02:00 +25°C° 0.1 mm 1 m/s 724 mmHg 85%
03:00 +25°C° 0.1 mm 1 m/s 723 mmHg 85%
04:00 +22°C° 0 mm 0 m/s 723 mmHg 86%
05:00 +22°C° 0 mm 0 m/s 724 mmHg 87%
06:00 +22°C° 0 mm 0 m/s 724 mmHg 88%
07:00 +24°C° 0 mm 0 m/s 724 mmHg 80%
08:00 +27°C° 0 mm 0 m/s 725 mmHg 71%
09:00 +29°C° 0 mm 0 m/s 725 mmHg 62%
10:00 +33°C° 0 mm 1 m/s 725 mmHg 56%
11:00 +35°C° 0 mm 1 m/s 725 mmHg 49%
12:00 +38°C° 0 mm 2 m/s 724 mmHg 42%
13:00 +37°C° 0 mm 2 m/s 724 mmHg 42%
14:00 +37°C° 0 mm 3 m/s 723 mmHg 42%
15:00 +37°C° 0 mm 3 m/s 722 mmHg 42%
16:00 +36°C° 0.3 mm 3 m/s 722 mmHg 47%
17:00 +34°C° 0.3 mm 3 m/s 721 mmHg 52%
18:00 +33°C° 0.3 mm 3 m/s 721 mmHg 57%
19:00 +30°C° 1.3 mm 2 m/s 722 mmHg 67%
20:00 +28°C° 1.3 mm 2 m/s 722 mmHg 78%
21:00 +25°C° 1.3 mm 1 m/s 723 mmHg 89%
22:00 +25°C° 0.7 mm 1 m/s 723 mmHg 89%
23:00 +25°C° 0.7 mm 1 m/s 723 mmHg 90%

27 Outubro, Terça-feira

Tempo Temperatura Precipitação Vento Pressão Humidade
00:00 +23°C° 0.4 mm 0 m/s 725 mmHg 84%
01:00 +23°C° 0.1 mm 0 m/s 724 mmHg 84%
02:00 +25°C° 0.1 mm 1 m/s 724 mmHg 85%
03:00 +25°C° 0.1 mm 1 m/s 723 mmHg 85%
04:00 +22°C° 0 mm 0 m/s 723 mmHg 86%
05:00 +22°C° 0 mm 0 m/s 724 mmHg 87%
06:00 +22°C° 0 mm 0 m/s 724 mmHg 88%
07:00 +24°C° 0 mm 0 m/s 724 mmHg 80%
08:00 +27°C° 0 mm 0 m/s 725 mmHg 71%
09:00 +29°C° 0 mm 0 m/s 725 mmHg 62%
10:00 +33°C° 0 mm 1 m/s 725 mmHg 56%
11:00 +35°C° 0 mm 1 m/s 725 mmHg 49%
12:00 +38°C° 0 mm 2 m/s 724 mmHg 42%
13:00 +37°C° 0 mm 2 m/s 724 mmHg 42%
14:00 +37°C° 0 mm 3 m/s 723 mmHg 42%
15:00 +37°C° 0 mm 3 m/s 722 mmHg 42%
16:00 +36°C° 0.3 mm 3 m/s 722 mmHg 47%
17:00 +34°C° 0.3 mm 3 m/s 721 mmHg 52%
18:00 +33°C° 0.3 mm 3 m/s 721 mmHg 57%
19:00 +30°C° 1.3 mm 2 m/s 722 mmHg 67%
20:00 +28°C° 1.3 mm 2 m/s 722 mmHg 78%
21:00 +25°C° 1.3 mm 1 m/s 723 mmHg 89%
22:00 +25°C° 0.7 mm 1 m/s 723 mmHg 89%
23:00 +25°C° 0.7 mm 1 m/s 723 mmHg 90%

28 Outubro, Quarta-feira

Tempo Temperatura Precipitação Vento Pressão Humidade
00:00 +25°C° 0.7 mm 1 m/s 723 mmHg 91%
01:00 +25°C° 1.9 mm 1 m/s 723 mmHg 92%
02:00 +25°C° 1.9 mm 1 m/s 723 mmHg 93%
03:00 +25°C° 1.9 mm 1 m/s 723 mmHg 94%
04:00 +25°C° 0.3 mm 1 m/s 723 mmHg 94%
05:00 +25°C° 0.3 mm 1 m/s 723 mmHg 94%
06:00 +25°C° 0.3 mm 1 m/s 724 mmHg 94%
07:00 +26°C° 0 mm 1 m/s 724 mmHg 88%
08:00 +28°C° 0 mm 2 m/s 725 mmHg 83%
09:00 +29°C° 0 mm 2 m/s 725 mmHg 77%
10:00 +31°C° 1.2 mm 2 m/s 725 mmHg 69%
11:00 +34°C° 1.2 mm 3 m/s 725 mmHg 60%
12:00 +36°C° 1.2 mm 3 m/s 724 mmHg 52%
13:00 +36°C° 0.3 mm 3 m/s 724 mmHg 50%
14:00 +36°C° 0.3 mm 4 m/s 723 mmHg 48%
15:00 +36°C° 0.3 mm 4 m/s 723 mmHg 46%
16:00 +34°C° 1.2 mm 3 m/s 723 mmHg 57%
17:00 +30°C° 1.2 mm 2 m/s 723 mmHg 69%
18:00 +28°C° 1.2 mm 1 m/s 722 mmHg 80%
19:00 +27°C° 0.7 mm 1 m/s 723 mmHg 82%
20:00 +27°C° 0.7 mm 1 m/s 723 mmHg 85%
21:00 +26°C° 0.7 mm 1 m/s 723 mmHg 87%
22:00 +24°C° 0 mm 0 m/s 723 mmHg 87%
23:00 +24°C° 0 mm 0 m/s 723 mmHg 87%

29 Outubro, Quinta-feira

Tempo Temperatura Precipitação Vento Pressão Humidade
00:00 +24°C° 0 mm 0 m/s 723 mmHg 86%
01:00 +24°C° 0 mm 0 m/s 723 mmHg 87%
02:00 +24°C° 0 mm 0 m/s 723 mmHg 88%
03:00 +23°C° 0 mm 0 m/s 723 mmHg 89%
04:00 +25°C° 0 mm 1 m/s 723 mmHg 89%
05:00 +25°C° 0 mm 1 m/s 723 mmHg 90%
06:00 +25°C° 0 mm 1 m/s 724 mmHg 91%
07:00 +27°C° 0 mm 1 m/s 725 mmHg 84%
08:00 +29°C° 0 mm 1 m/s 725 mmHg 76%
09:00 +31°C° 0 mm 2 m/s 726 mmHg 68%
10:00 +32°C° 0.1 mm 2 m/s 726 mmHg 60%
11:00 +35°C° 0.1 mm 3 m/s 726 mmHg 53%
12:00 +37°C° 0.1 mm 3 m/s 726 mmHg 45%
13:00 +35°C° 1.8 mm 3 m/s 725 mmHg 52%
14:00 +33°C° 1.8 mm 4 m/s 724 mmHg 60%
15:00 +30°C° 1.8 mm 4 m/s 723 mmHg 68%
16:00 +29°C° 3.7 mm 3 m/s 723 mmHg 75%
17:00 +27°C° 3.7 mm 2 m/s 723 mmHg 83%
18:00 +25°C° 3.7 mm 1 m/s 724 mmHg 91%
19:00 +25°C° 0 mm 1 m/s 724 mmHg 90%
20:00 +25°C° 0 mm 1 m/s 725 mmHg 88%
21:00 +25°C° 0 mm 1 m/s 725 mmHg 87%
22:00 +25°C° 0.1 mm 1 m/s 726 mmHg 89%
23:00 +24°C° 0.1 mm 1 m/s 726 mmHg 91%
Mostrar mais